• In Germany
  • List of Countries
  • For 7 days
  • Water Temperature
  • Satellite Maps
  • Weather Map
  • Weather Widgets
  • user-avatar
    Login

    Hourly Weather Durres

    Today, 26 July, Wednesday

    Time Temperature Precipitation Wind Pressure Humidity
    00:00 +23°C° 0.4 mm 4 mps 752 mmHg 68%
    01:00 +23°C° 0.4 mm 4 mps 752 mmHg 68%
    02:00 +22°C° 0.3 mm 4 mps 752 mmHg 69%
    03:00 +22°C° 0.3 mm 4 mps 752 mmHg 70%
    04:00 +22°C° 0.3 mm 3 mps 752 mmHg 70%
    05:00 +24°C° 0.3 mm 3 mps 752 mmHg 67%
    06:00 +26°C° 0.3 mm 3 mps 752 mmHg 63%
    07:00 +28°C° 0.3 mm 3 mps 752 mmHg 60%
    08:00 +29°C° 0.2 mm 3 mps 752 mmHg 55%
    09:00 +30°C° 0.2 mm 4 mps 752 mmHg 51%
    10:00 +32°C° 0.2 mm 4 mps 752 mmHg 46%
    11:00 +32°C° 0.1 mm 4 mps 752 mmHg 46%
    12:00 +32°C° 0.1 mm 4 mps 752 mmHg 45%
    13:00 +32°C° 0.1 mm 4 mps 752 mmHg 45%
    14:00 +32°C° 0 mm 4 mps 752 mmHg 45%
    15:00 +31°C° 0 mm 3 mps 752 mmHg 44%
    16:00 +30°C° 0 mm 3 mps 752 mmHg 44%
    17:00 +29°C° 0 mm 3 mps 752 mmHg 51%
    18:00 +27°C° 0 mm 2 mps 752 mmHg 59%
    19:00 +25°C° 0 mm 2 mps 752 mmHg 66%
    20:00 +24°C° 0.1 mm 1 mps 753 mmHg 71%
    21:00 +23°C° 0.1 mm 1 mps 753 mmHg 77%
    22:00 +22°C° 0.1 mm 1 mps 753 mmHg 82%
    23:00 +22°C° 0 mm 1 mps 753 mmHg 82%

    Tomorrow, 27 July, Thursday

    Time Temperature Precipitation Wind Pressure Humidity
    00:00 +21°C° 0 mm 1 mps 754 mmHg 82%
    01:00 +20°C° 0 mm 2 mps 754 mmHg 83%
    02:00 +20°C° 0 mm 2 mps 754 mmHg 83%
    03:00 +19°C° 0 mm 2 mps 754 mmHg 83%
    04:00 +19°C° 0 mm 2 mps 754 mmHg 84%
    05:00 +21°C° 0.2 mm 2 mps 754 mmHg 78%
    06:00 +23°C° 0.2 mm 2 mps 754 mmHg 72%
    07:00 +25°C° 0.2 mm 2 mps 754 mmHg 66%
    08:00 +27°C° 0.1 mm 3 mps 754 mmHg 58%
    09:00 +28°C° 0.1 mm 3 mps 755 mmHg 51%
    10:00 +30°C° 0.1 mm 3 mps 755 mmHg 43%
    11:00 +32°C° 0 mm 4 mps 755 mmHg 41%
    12:00 +32°C° 0 mm 5 mps 754 mmHg 40%
    13:00 +33°C° 0 mm 6 mps 754 mmHg 38%
    14:00 +32°C° 0 mm 6 mps 754 mmHg 40%
    15:00 +32°C° 0 mm 6 mps 754 mmHg 42%
    16:00 +32°C° 0 mm 6 mps 754 mmHg 44%
    17:00 +29°C° 0 mm 6 mps 755 mmHg 52%
    18:00 +27°C° 0 mm 5 mps 755 mmHg 59%
    19:00 +25°C° 0 mm 4 mps 756 mmHg 67%
    20:00 +23°C° 0.1 mm 4 mps 756 mmHg 70%
    21:00 +22°C° 0.1 mm 3 mps 757 mmHg 74%
    22:00 +21°C° 0.1 mm 2 mps 757 mmHg 77%
    23:00 +21°C° 0.1 mm 2 mps 757 mmHg 76%

    Day after tomorrow, 28 July, Friday

    Time Temperature Precipitation Wind Pressure Humidity
    00:00 +21°C° 0.1 mm 2 mps 757 mmHg 75%
    01:00 +21°C° 0.1 mm 2 mps 758 mmHg 74%
    02:00 +20°C° 0 mm 2 mps 758 mmHg 73%
    03:00 +20°C° 0 mm 2 mps 758 mmHg 72%
    04:00 +20°C° 0 mm 2 mps 758 mmHg 71%
    05:00 +23°C° 0 mm 2 mps 758 mmHg 64%
    06:00 +25°C° 0 mm 2 mps 758 mmHg 57%
    07:00 +27°C° 0 mm 2 mps 759 mmHg 50%
    08:00 +29°C° 0 mm 2 mps 759 mmHg 44%
    09:00 +31°C° 0 mm 2 mps 759 mmHg 38%
    10:00 +32°C° 0 mm 2 mps 759 mmHg 31%
    11:00 +34°C° 0 mm 2 mps 759 mmHg 29%
    12:00 +35°C° 0 mm 3 mps 759 mmHg 27%
    13:00 +36°C° 0 mm 4 mps 759 mmHg 26%
    14:00 +36°C° 0 mm 4 mps 759 mmHg 27%
    15:00 +35°C° 0 mm 4 mps 758 mmHg 28%
    16:00 +35°C° 0 mm 4 mps 758 mmHg 29%
    17:00 +31°C° 0 mm 3 mps 759 mmHg 38%
    18:00 +28°C° 0 mm 2 mps 759 mmHg 46%
    19:00 +26°C° 0 mm 2 mps 759 mmHg 55%
    20:00 +25°C° 0 mm 1 mps 760 mmHg 55%
    21:00 +25°C° 0 mm 1 mps 760 mmHg 55%
    22:00 +24°C° 0 mm 1 mps 761 mmHg 55%
    23:00 +24°C° 0 mm 1 mps 761 mmHg 55%

    29 July, Saturday

    Time Temperature Precipitation Wind Pressure Humidity
    00:00 +24°C° 0 mm 1 mps 761 mmHg 54%
    01:00 +24°C° 0 mm 1 mps 761 mmHg 53%
    02:00 +24°C° 0 mm 1 mps 761 mmHg 53%
    03:00 +23°C° 0 mm 1 mps 761 mmHg 54%
    04:00 +23°C° 0 mm 2 mps 761 mmHg 54%
    05:00 +25°C° 0 mm 2 mps 761 mmHg 49%
    06:00 +27°C° 0 mm 2 mps 761 mmHg 45%
    07:00 +30°C° 0 mm 2 mps 762 mmHg 41%
    08:00 +32°C° 0 mm 2 mps 762 mmHg 36%
    09:00 +35°C° 0 mm 2 mps 762 mmHg 32%
    10:00 +38°C° 0 mm 2 mps 762 mmHg 28%
    11:00 +38°C° 0 mm 2 mps 762 mmHg 27%
    12:00 +39°C° 0 mm 3 mps 761 mmHg 25%
    13:00 +40°C° 0 mm 4 mps 761 mmHg 24%
    14:00 +40°C° 0 mm 4 mps 761 mmHg 25%
    15:00 +38°C° 0 mm 4 mps 761 mmHg 26%
    16:00 +38°C° 0 mm 4 mps 761 mmHg 27%
    17:00 +35°C° 0 mm 3 mps 761 mmHg 33%
    18:00 +31°C° 0 mm 3 mps 761 mmHg 40%
    19:00 +29°C° 0 mm 2 mps 761 mmHg 46%
    20:00 +28°C° 0 mm 2 mps 761 mmHg 47%
    21:00 +28°C° 0 mm 1 mps 762 mmHg 47%
    22:00 +27°C° 0 mm 1 mps 762 mmHg 48%
    23:00 +27°C° 0 mm 1 mps 762 mmHg 48%

    30 July, Sunday

    Time Temperature Precipitation Wind Pressure Humidity
    00:00 +27°C° 0 mm 1 mps 762 mmHg 48%
    01:00 +27°C° 0 mm 1 mps 762 mmHg 48%
    02:00 +26°C° 0 mm 1 mps 762 mmHg 49%
    03:00 +26°C° 0 mm 1 mps 761 mmHg 49%
    04:00 +26°C° 0 mm 1 mps 761 mmHg 50%
    05:00 +28°C° 0 mm 1 mps 761 mmHg 46%
    06:00 +30°C° 0 mm 1 mps 761 mmHg 43%
    07:00 +32°C° 0 mm 1 mps 761 mmHg 40%
    08:00 +34°C° 0 mm 1 mps 761 mmHg 35%
    09:00 +37°C° 0 mm 2 mps 761 mmHg 31%
    10:00 +39°C° 0 mm 2 mps 761 mmHg 27%
    11:00 +40°C° 0 mm 3 mps 761 mmHg 26%
    12:00 +40°C° 0 mm 3 mps 760 mmHg 25%
    13:00 +41°C° 0 mm 4 mps 760 mmHg 24%
    14:00 +41°C° 0 mm 4 mps 760 mmHg 24%
    15:00 +40°C° 0 mm 5 mps 760 mmHg 25%
    16:00 +40°C° 0 mm 5 mps 760 mmHg 26%
    17:00 +36°C° 0 mm 4 mps 760 mmHg 32%
    18:00 +33°C° 0 mm 4 mps 760 mmHg 37%
    19:00 +30°C° 0 mm 3 mps 760 mmHg 43%
    20:00 +29°C° 0 mm 3 mps 760 mmHg 44%
    21:00 +29°C° 0 mm 2 mps 760 mmHg 45%
    22:00 +28°C° 0 mm 2 mps 760 mmHg 47%
    23:00 +28°C° 0 mm 2 mps 760 mmHg 47%

    31 July, Monday

    Time Temperature Precipitation Wind Pressure Humidity
    00:00 +28°C° 0 mm 2 mps 760 mmHg 47%
    01:00 +27°C° 0 mm 1 mps 760 mmHg 47%
    02:00 +27°C° 0 mm 1 mps 760 mmHg 47%
    03:00 +27°C° 0 mm 2 mps 760 mmHg 48%
    04:00 +27°C° 0 mm 2 mps 760 mmHg 48%
    05:00 +29°C° 0 mm 2 mps 760 mmHg 45%
    06:00 +31°C° 0 mm 2 mps 760 mmHg 42%
    07:00 +34°C° 0 mm 2 mps 760 mmHg 38%
    08:00 +36°C° 0 mm 2 mps 760 mmHg 34%
    09:00 +38°C° 0 mm 3 mps 760 mmHg 30%
    10:00 +42°C° 0 mm 3 mps 760 mmHg 26%
    11:00 +42°C° 0 mm 4 mps 759 mmHg 25%
    12:00 +43°C° 0 mm 4 mps 759 mmHg 24%
    13:00 +43°C° 0 mm 5 mps 759 mmHg 23%
    14:00 +42°C° 0 mm 5 mps 759 mmHg 26%
    15:00 +41°C° 0 mm 5 mps 758 mmHg 28%
    16:00 +40°C° 0 mm 5 mps 758 mmHg 31%
    17:00 +37°C° 0 mm 5 mps 759 mmHg 35%
    18:00 +35°C° 0 mm 4 mps 759 mmHg 40%
    19:00 +33°C° 0 mm 3 mps 759 mmHg 45%
    20:00 +31°C° 0 mm 3 mps 759 mmHg 46%
    21:00 +30°C° 0 mm 2 mps 760 mmHg 47%
    22:00 +29°C° 0 mm 2 mps 760 mmHg 49%
    23:00 +29°C° 0 mm 2 mps 760 mmHg 48%
    Show more